TimeMST,TemperatureF,Dew PointF,Humidity,Sea Level PressureIn,VisibilityMPH,Wind Direction,Wind SpeedMPH,Gust SpeedMPH,PrecipitationIn,Events,Conditions,WindDirDegrees,DateUTC
12:53 AM,55.9,28.0,34,30.03,10.0,Calm,Calm,-,N/A,,Clear,0,2011-10-13 07:53:00
1:53 AM,55.9,25.0,30,30.02,10.0,Calm,Calm,-,N/A,,Clear,0,2011-10-13 08:53:00
2:53 AM,54.0,26.1,34,30.02,10.0,WSW,4.6,-,N/A,,Clear,250,2011-10-13 09:53:00
3:53 AM,55.0,28.0,35,30.02,10.0,SSW,4.6,-,N/A,,Clear,200,2011-10-13 10:53:00
4:53 AM,55.0,28.9,37,30.01,10.0,Calm,Calm,-,N/A,,Clear,0,2011-10-13 11:53:00
5:53 AM,54.0,27.0,35,30.04,10.0,SE,3.5,-,N/A,,Clear,130,2011-10-13 12:53:00
6:53 AM,52.0,28.9,41,30.06,10.0,Calm,Calm,-,N/A,,Clear,0,2011-10-13 13:53:00
7:53 AM,60.1,28.0,30,30.07,10.0,Calm,Calm,-,N/A,,Clear,0,2011-10-13 14:53:00
8:53 AM,63.0,28.0,27,30.07,10.0,Calm,Calm,-,N/A,,Clear,0,2011-10-13 15:53:00
9:53 AM,66.0,28.9,25,30.07,10.0,Calm,Calm,-,N/A,,Clear,0,2011-10-13 16:53:00
10:53 AM,66.9,30.9,26,30.05,10.0,Variable,4.6,-,N/A,,Clear,0,2011-10-13 17:53:00
11:53 AM,69.8,32.0,25,30.15,10.0,NE,3.5,-,N/A,,Clear,40,2011-10-13 18:53:00
12:53 PM,71.6,30.2,22,30.11,10.0,NNE,5.8,-,N/A,,Clear,30,2011-10-13 19:53:00
1:53 PM,75.0,28.9,18,29.93,10.0,Calm,Calm,-,N/A,,Clear,0,2011-10-13 20:53:00
2:53 PM,77.0,28.0,17,29.91,10.0,NE,5.8,-,N/A,,Clear,50,2011-10-13 21:53:00
3:53 PM,78.1,28.0,16,29.89,10.0,NE,5.8,-,N/A,,Clear,40,2011-10-13 22:53:00
4:53 PM,77.0,24.1,14,29.88,10.0,NNE,6.9,-,N/A,,Clear,20,2011-10-13 23:53:00
5:53 PM,70.0,27.0,20,29.90,10.0,Calm,Calm,-,N/A,,Clear,0,2011-10-14 00:53:00
6:53 PM,68.0,25.0,20,29.91,10.0,SE,4.6,-,N/A,,Clear,140,2011-10-14 01:53:00
7:53 PM,66.9,27.0,22,29.90,10.0,South,3.5,-,N/A,,Clear,170,2011-10-14 02:53:00
8:53 PM,64.0,28.9,27,29.91,10.0,West,3.5,-,N/A,,Clear,260,2011-10-14 03:53:00
9:53 PM,62.1,28.0,28,29.92,10.0,Calm,Calm,-,N/A,,Clear,0,2011-10-14 04:53:00
10:53 PM,61.0,28.9,30,29.93,10.0,West,3.5,-,N/A,,Clear,260,2011-10-14 05:53:00
11:53 PM,59.0,28.0,31,29.93,10.0,Calm,Calm,-,N/A,,Clear,0,2011-10-14 06:53:00